Regional Weather Roundup
Issued by NWS

Home | Current Version | Previous Version | Graphics & Text | Print | Product List | Glossary On
Versions: 1 2 3 4 5 6 7 8 9 10 11 12 13 14 15 16 17 18 19 20 21 22 23 24 25 26 27 28
000
ASUS45 KTFX 240110
RWRMT
MONTANA REGIONAL WEATHER ROUNDUP
NATIONAL WEATHER SERVICE GREAT FALLS MT
700 PM MDT SAT JUL 23 2016

NOTE: "FAIR" INDICATES FEW OR NO CLOUDS BELOW 12000 FEET WITH NO
SIGNIFICANT WEATHER AND/OR OBSTRUCTIONS TO VISIBILITY.

MTZ001>007-043-240200-
WEST OF THE DIVIDE

CITY           SKY/WX    TMP DP  RH WIND       PRES   REMARKS
KALISPELL      SUNNY     77  43  29 W7G17     30.06S
MISSOULA       MOSUNNY   79  38  22 NW12      30.09S
BUTTE          SUNNY     72  35  25 NW13G21   30.16S
MULLAN PASS    SUNNY     60  43  53 VRB5      30.26F
ANACONDA         N/A     72  39  30 NE5       30.13F
DEER LODGE       N/A     73  37  27 NW15G23   30.14S
EUREKA           N/A     79  45  29 S7        30.07F
HAMILTON         N/A     77  43  29 NE7       30.10F
LIBBY            N/A     75  41  29 W6        30.10F
PLAINS           N/A     79  42  26 W10       30.09S
RONAN            N/A     78  40  25 W8        30.13S
$$

MTZ008-052>055-240200-
SOUTHWEST MONTANA

CITY           SKY/WX    TMP DP  RH WIND       PRES   REMARKS
BOZEMAN        SUNNY     78  38  23 NW8       30.07S
DILLON         CLOUDY    73  40  30 NE9       30.08S
W YELLOWSTONE  CLOUDY    72  30  21 SW12G18   30.21R
ENNIS          MOSUNNY   79  28  15 NE8G21    30.14R
THREE FORKS      N/A     80  80 100 N9        30.05S
TWIN BRIDGES     N/A     82  30  15 NW7       30.06F
$$

MTZ009-010-012-014-046-048-049-054-240200-
EAST SLOPES AND CENTRAL MONTANA

CITY           SKY/WX    TMP DP  RH WIND       PRES   REMARKS
CUT BANK       MOSUNNY   76  38  25 W14       30.04S
GREAT FALLS    PTSUNNY   77  38  24 SW10      30.02F
MALMSTROM AFB  MOSUNNY   78  40  25 SW13      30.02S
HELENA         MOSUNNY   80  36  20 NW16      30.06F
CHOTEAU          N/A     77  36  22 NW13G21   30.07S
CONRAD           N/A     78  40  25 SW12      30.06F
$$

MTZ011-013-016-021-045-047-050-051-240200-
NORTH CENTRAL MONTANA

CITY           SKY/WX    TMP DP  RH WIND       PRES   REMARKS
HAVRE          SUNNY     78  45  30 CALM      29.97S
LEWISTOWN      SUNNY     76  43  30 NW8       30.07F
N BAR RANCH      N/A     72  43  35 NW15      30.11R
CHINOOK          N/A     81  46  30 N8        29.96S
$$

MTZ017>020-022>027-061-062-240200-
NORTHEAST MONTANA

CITY           SKY/WX    TMP DP  RH WIND       PRES   REMARKS
GLASGOW        SUNNY     77  49  37 NW18G26   29.95R
JORDAN           N/A     80  45  28 NW18G30   29.97R
SIDNEY         MOSUNNY   78  52  40 NW17      29.90R
WOLF POINT     SUNNY     78  50  37 NW20G26   29.94R
PLENTYWOOD       N/A     72  55  56 NW14G22   29.90R
POPLAR           N/A     75  52  43 NW21      29.92R
SCOBEY           N/A     72  48  42 NW14      29.94R
$$

MTZ028>42-056>058-240200-
SOUTHCENTRAL AND SOUTHEAST MONTANA

CITY           SKY/WX    TMP DP  RH WIND       PRES   REMARKS
BAKER          SUNNY     80  43  26 NW22      29.97R
BILLINGS       MOSUNNY   84  35  17 N16G22    30.01S
LIVINGSTON     CLOUDY    76  32  20 NW9       30.06S
MILES CITY     SUNNY     83  41  22 NW20G28   29.96R
EKALAKA          N/A     79  39  23 NW13      29.98R
FORSYTH          N/A     82  43  24 NW10      29.97R
LAUREL           N/A     84  37  18 N10       30.01R
ROUNDUP          N/A     79  44  28 N6        29.95S
$$

REGIONAL REPORTS...DAKOTAS

CITY           SKY/WX    TMP DP  RH WIND       PRES   REMARKS
WILLISTON      CLOUDY    75  54  47 NW18      29.89R
MINOT          SUNNY     80  55  42 W24       29.79R
DICKINSON      SUNNY     77  47  34 NW17G23   29.89R
BEACH            N/A     77  45  31 NW21G28   29.97R
CROSBY           N/A     70  59  68 NW15G24   29.87R
WATFORD CITY     N/A    N/A N/A N/A MISG        N/A
BISMARCK       SUNNY     82  54  37 NW8       29.82R
GRAND FORKS    CLOUDY    71  68  90 W6        29.70F
FARGO          LGT RAIN  73  70  90 N8G21     29.70R FOG
BUFFALO SD       N/A     85  39  19 NW25G32   29.88S
RAPID CITY     SUNNY     85  43  22 N10G21    29.95R
$$

REGIONAL REPORTS...WYOMING/IDAHO/WASHINGTON

CITY           SKY/WX    TMP DP  RH WIND       PRES   REMARKS
GILLETTE       SUNNY     81  38  21 N9        30.03S
SHERIDAN       SUNNY     84  34  16 N12       30.03R
BUFFALO WY     SUNNY     81  33  17 N14       30.09S
CODY           SUNNY     79  36  21 N13       30.08R
YELLOWSTONE LA   N/A     67  21  17 VRB6      30.30S
IDAHO FALLS    SUNNY     81  30  15 S17G26    30.08F
SALMON         SUNNY     82  37  20 N14G20    30.00S
BOISE          SUNNY     85  28  12 NW18      30.05F
SPOKANE          N/A     78  38  23 NW6       30.11F
$$

REGIONAL REPORTS...ALBERTA

CITY           SKY/WX    TMP DP  RH WIND       PRES   REMARKS
EDMONTON       MOSUNNY   68  50  52 NW6       29.91F
CALGARY        MOSUNNY   68  50  52 SE5       29.97S
LETHBRIDGE     MOSUNNY   75  45  33 W22G32    29.97S
MEDICINE HAT   MOSUNNY   77  48  36 NW3       29.94F
WATERTON GATE    N/A     70  43  37 W18G26      N/A
CARDSTON         N/A     73  43  33 W12G21      N/A
MILK RIVER       N/A     73  43  33 NW12        N/A
ONEFOUR          N/A     75  43  31 NW9         N/A
$$

REGIONAL REPORTS...SASKATCHEWAN

CITY           SKY/WX    TMP DP  RH WIND       PRES   REMARKS
SWIFT CURRENT  MOSUNNY   66  59  77 NW15G30   29.95R
REGINA         MOSUNNY   70  59  68 NW16G30   29.82R
SASKATOON      MOSUNNY   72  54  53 NW16G29   29.82S
CYPRESS HILLS    N/A     68  48  49 NW5         N/A
VAL MARIE        N/A     72  48  43 NW12        N/A
ROCKGLEN         N/A     68  52  56 NW16G23     N/A
ASSINIBOIA       N/A     70  52  52 NW8         N/A
$$




USA.gov is the U.S. government's official web portal to all federal, state and local government web resources and services.